KB1FFS Weather Reports


time (UTC)temp
C
wind
direction
speed
KPH
gust
KPH
rain 1hr
cm
rain 24hr
cm
rain mn
cm
humidity
%
barometer
mb
20260506014940 20 78 3.2 4.8 0.00 0.00 0.00 66 1008.4
20260506014437 21 149 3.2 8.0 0.00 0.00 0.00 66 1008.3
20260506013933 21 166 3.2 6.4 0.00 0.00 0.00 65 1008.1
20260506013432 21 131 3.2 8.0 0.00 0.00 0.00 65 1008.4
20260506012927 21 149 1.6 8.0 0.00 0.00 0.00 65 1008.2
20260506012424 21 145 3.2 6.4 0.00 0.00 0.00 65 1007.6
20260506011921 21 120 3.2 6.4 0.00 0.00 0.00 65 1008.0
20260506011418 22 157 3.2 3.2 0.00 0.00 0.00 65 1008.1
20260506010915 22 156 3.2 8.0 0.00 0.00 0.00 64 1007.7
20260506010414 22 138 1.6 6.4 0.00 0.00 0.00 64 1007.2
20260506005909 22 161 3.2 6.4 0.00 0.00 0.00 63 1007.4
20260506005408 22 269 0.0 3.2 0.00 0.00 0.00 64 1007.2
20260506004903 22 160 3.2 6.4 0.00 0.00 0.00 64 1007.2
20260506004401 22 139 3.2 4.8 0.00 0.00 0.00 63 1007.4
20260506003857 22 157 3.2 4.8 0.00 0.00 0.00 63 1007.1
20260506003353 23 93 0.0 6.4 0.00 0.00 0.00 63 1006.6
20260506002850 23 140 4.8 6.4 0.00 0.00 0.00 63 1006.3
20260506002346 23 306 0.0 4.8 0.00 0.00 0.00 62 1006.7
20260506001842 23 163 3.2 8.0 0.00 0.00 0.00 62 1006.9
20260506001339 24 111 3.2 6.4 0.00 0.00 0.00 61 1006.6
20260506000836 24 326 3.2 3.2 0.00 0.00 0.00 61 1006.6
20260506000334 25 148 0.0 4.8 0.00 0.00 0.00 60 1006.5
20260505235830 25 300 0.0 4.8 0.00 0.00 0.00 59 1006.5
20260505235328 25 154 3.2 4.8 0.00 0.00 0.00 59 1006.6
20260505234824 25 74 3.2 6.4 0.00 0.00 0.00 59 1006.3
20260505234322 25 147 1.6 3.2 0.00 0.00 0.00 59 1006.5
20260505233819 26 149 3.2 8.0 0.00 0.00 0.00 58 1006.3
20260505233317 26 252 0.0 6.4 0.00 0.00 0.00 56 1006.2
20260505232814 26 222 0.0 6.4 0.00 0.00 0.00 56 1006.1
20260505232311 26 329 1.6 4.8 0.00 0.00 0.00 55 1006.1
20260505231808 26 53 0.0 8.0 0.00 0.00 0.00 55 1006.4
20260505231306 27 190 0.0 8.0 0.00 0.00 0.00 56 1006.3
20260505230804 27 240 1.6 4.8 0.00 0.00 0.00 54 1005.8
20260505230301 27 329 4.8 8.0 0.00 0.00 0.00 53 1006.1
20260505225757 28 145 1.6 4.8 0.00 0.00 0.00 53 1006.1
20260505225255 28 159 0.0 3.2 0.00 0.00 0.00 52 1005.9
20260505224749 28 34 4.8 8.0 0.00 0.00 0.00 50 1005.6
20260505224247 29 126 0.0 6.4 0.00 0.00 0.00 51 1005.5
20260505223745 29 159 0.0 4.8 0.00 0.00 0.00 51 1005.5
20260505223241 29 195 3.2 3.2 0.00 0.00 0.00 51 1005.6
20260505222737 30 263 0.0 6.4 0.00 0.00 0.00 50 1005.4
20260505222233 30 215 1.6 3.2 0.00 0.00 0.00 50 1005.3
20260505221731 30 57 0.0 3.2 0.00 0.00 0.00 49 1005.3
20260505221227 30 166 3.2 3.2 0.00 0.00 0.00 48 1005.0
20260505220724 31 281 3.2 6.4 0.00 0.00 0.00 46 1005.0
20260505220222 31 205 0.0 4.8 0.00 0.00 0.00 45 1005.0
20260505215720 31 272 1.6 4.8 0.00 0.00 0.00 42 1005.0
20260505215217 31 200 3.2 3.2 0.00 0.00 0.00 41 1004.7
20260505214715 32 241 3.2 4.8 0.00 0.00 0.00 40 1005.1
20260505214212 32 295 1.6 4.8 0.00 0.00 0.00 40 1005.2
20260505213709 32 172 3.2 3.2 0.00 0.00 0.00 40 1005.2
20260505213206 33 204 0.0 4.8 0.00 0.00 0.00 38 1005.2
20260505212702 32 155 0.0 4.8 0.00 0.00 0.00 41 1005.0
20260505212200 32 257 4.8 4.8 0.00 0.00 0.00 41 1005.0
20260505211656 33 263 3.2 6.4 0.00 0.00 0.00 39 1005.0
20260505211154 33 318 3.2 6.4 0.00 0.00 0.00 40 1005.0
20260505210650 35 353 3.2 6.4 0.00 0.00 0.00 38 1005.2
20260505210147 34 275 0.0 4.8 0.00 0.00 0.00 42 1005.0
20260505205644 34 44 0.0 4.8 0.00 0.00 0.00 42 1004.9
20260505205143 35 273 3.2 4.8 0.00 0.00 0.00 41 1005.1
20260505204639 35 334 1.6 4.8 0.00 0.00 0.00 42 1005.2
20260505204137 35 117 3.2 8.0 0.00 0.00 0.00 40 1005.3
20260505203634 35 278 1.6 6.4 0.00 0.00 0.00 42 1005.3
20260505203131 34 349 4.8 6.4 0.00 0.00 0.00 42 1005.2
20260505202626 34 273 4.8 4.8 0.00 0.00 0.00 43 1005.3
20260505202122 34 330 3.2 6.4 0.00 0.00 0.00 42 1005.3
20260505201619 34 91 3.2 8.0 0.00 0.00 0.00 41 1005.2
20260505201117 34 25 4.8 8.0 0.00 0.00 0.00 44 1005.5
20260505200615 34 269 1.6 8.0 0.00 0.00 0.00 45 1005.5
20260505200111 34 0 3.2 4.8 0.00 0.00 0.00 45 1005.5
20260505195608 33 317 3.2 6.4 0.00 0.00 0.00 47 1005.6
20260505195105 34 350 3.2 9.7 0.00 0.00 0.00 46 1005.6
20260505194602 33 307 1.6 6.4 0.00 0.00 0.00 49 1005.6
20260505194058 33 321 0.0 6.4 0.00 0.00 0.00 49 1005.8
20260505193555 32 7 4.8 8.0 0.00 0.00 0.00 47 1005.6
20260505193052 32 346 3.2 8.0 0.00 0.00 0.00 48 1005.9
20260505192551 33 10 3.2 6.4 0.00 0.00 0.00 48 1005.8
20260505192048 32 327 1.6 9.7 0.00 0.00 0.00 50 1005.9
20260505191546 32 338 4.8 8.0 0.00 0.00 0.00 50 1005.4
20260505191043 32 338 3.2 4.8 0.00 0.00 0.00 52 1005.6
20260505190538 32 22 1.6 9.7 0.00 0.00 0.00 52 1005.6
20260505190034 31 8 4.8 6.4 0.00 0.00 0.00 52 1005.6
20260505185531 31 326 3.2 3.2 0.00 0.00 0.00 56 1005.6
20260505185027 31 325 1.6 6.4 0.00 0.00 0.00 54 1005.4
20260505184524 31 355 4.8 6.4 0.00 0.00 0.00 55 1005.5
20260505184021 30 28 4.8 6.4 0.00 0.00 0.00 56 1005.4
20260505183518 30 25 3.2 3.2 0.00 0.00 0.00 58 1005.8
20260505183015 30 22 4.8 6.4 0.00 0.00 0.00 57 1005.4
20260505182512 30 10 4.8 4.8 0.00 0.00 0.00 56 1006.1
20260505182008 30 5 4.8 9.7 0.00 0.00 0.00 57 1005.9
20260505181505 30 324 3.2 6.4 0.00 0.00 0.00 57 1005.9
20260505181002 30 341 3.2 6.4 0.00 0.00 0.00 59 1005.5
20260505180458 30 354 3.2 6.4 0.00 0.00 0.00 59 1006.0
20260505175955 30 353 3.2 8.0 0.00 0.00 0.00 58 1006.0
20260505175451 30 350 1.6 6.4 0.00 0.00 0.00 59 1006.0
20260505174948 30 355 3.2 8.0 0.00 0.00 0.00 57 1006.0
20260505174445 30 64 3.2 9.7 0.00 0.00 0.00 58 1005.9
20260505173941 30 1 1.6 6.4 0.00 0.00 0.00 59 1005.9
20260505173438 30 351 3.2 6.4 0.00 0.00 0.00 60 1005.8
20260505172935 30 3 1.6 6.4 0.00 0.00 0.00 61 1006.0
20260505172433 29 41 8.0 8.0 0.00 0.00 0.00 61 1005.8
20260505171932 28 119 0.0 4.8 0.00 0.00 0.00 63 1005.8
20260505171430 28 349 3.2 6.4 0.00 0.00 0.00 62 1006.0
20260505170926 28 347 3.2 4.8 0.00 0.00 0.00 62 1005.9
20260505170423 28 42 1.6 6.4 0.00 0.00 0.00 63 1005.9
20260505165918 28 16 0.0 4.8 0.00 0.00 0.00 62 1005.9
20260505165414 28 353 3.2 6.4 0.00 0.00 0.00 63 1006.0
20260505164909 28 343 3.2 6.4 0.00 0.00 0.00 64 1006.1
20260505164407 27 153 1.6 6.4 0.00 0.00 0.00 65 1006.1
20260505163905 27 357 3.2 6.4 0.00 0.00 0.00 66 1005.9
20260505163404 27 10 6.4 6.4 0.00 0.00 0.00 66 1006.0
20260505162902 27 49 0.0 8.0 0.00 0.00 0.00 66 1005.8
20260505162357 27 10 3.2 8.0 0.00 0.00 0.00 66 1005.6
20260505161854 27 354 3.2 6.4 0.00 0.00 0.00 67 1005.9
20260505161351 27 16 3.2 6.4 0.00 0.00 0.00 67 1005.9
20260505160849 26 119 3.2 6.4 0.00 0.00 0.00 68 1005.8
20260505160347 26 349 3.2 6.4 0.00 0.00 0.00 68 1005.8
20260505153326 25 44 1.6 4.8 0.00 0.00 0.00 72 1005.8
20260505152823 25 127 3.2 4.8 0.00 0.00 0.00 72 1005.6
20260505152320 25 338 3.2 6.4 0.00 0.00 0.00 71 1005.4
20260505151820 25 339 3.2 6.4 0.00 0.00 0.00 72 1005.5
20260505151317 25 92 3.2 4.8 0.00 0.00 0.00 73 1005.4
20260505150813 25 327 3.2 9.7 0.00 0.00 0.00 72 1005.4
20260505150310 25 338 1.6 4.8 0.00 0.00 0.00 73 1005.5
20260505140235 23 29 6.4 6.4 0.00 0.00 0.00 78 1005.2
20260505130159 22 17 3.2 6.4 0.00 0.00 0.00 82 1005.0
20260505124648 21 55 4.8 6.4 0.00 0.00 0.00 83 1005.5
20260505124145 21 72 0.0 6.4 0.00 0.00 0.00 84 1005.1
20260505123641 21 116 3.2 6.4 0.00 0.00 0.00 84 1004.9
20260505123138 21 12 0.0 6.4 0.00 0.00 0.00 84 1004.9
20260505122634 21 55 1.6 4.8 0.00 0.00 0.00 84 1004.9
20260505122132 21 92 1.6 3.2 0.00 0.00 0.00 85 1004.9
20260505121628 21 115 3.2 6.4 0.00 0.00 0.00 85 1004.8
20260505121125 21 110 1.6 3.2 0.00 0.00 0.00 85 1004.8
20260505120621 21 122 1.6 4.8 0.00 0.00 0.00 85 1004.7
20260505120117 21 50 0.0 3.2 0.00 0.00 0.00 85 1004.6
20260505115612 21 100 3.2 8.0 0.00 0.00 0.00 85 1004.4
20260505115109 21 44 0.0 6.4 0.00 0.00 0.00 85 1004.7
20260505114606 21 16 3.2 3.2 0.00 0.00 0.00 85 1004.6
20260505114103 21 123 1.6 6.4 0.00 0.00 0.00 85 1004.6
20260505113559 21 60 3.2 6.4 0.00 0.00 0.00 85 1004.4
20260505113056 21 43 4.8 8.0 0.00 0.00 0.00 85 1004.4
20260505112553 21 31 3.2 8.0 0.00 0.00 0.00 85 1004.2
20260505112051 21 147 3.2 6.4 0.00 0.00 0.00 85 1004.3
20260505111550 21 38 1.6 8.0 0.00 0.00 0.00 85 1004.3
20260505111046 21 20 3.2 8.0 0.00 0.00 0.00 85 1004.4
20260505110543 21 155 0.0 6.4 0.00 0.00 0.00 84 1004.3
20260505102015 21 22 1.6 8.0 0.00 0.00 0.00 83 1004.2
20260505101514 21 15 0.0 6.4 0.00 0.00 0.00 83 1004.3
20260505101010 21 12 3.2 4.8 0.00 0.00 0.00 83 1004.2
20260505100507 21 91 3.2 6.4 0.00 0.00 0.00 83 1004.3
20260505100003 21 61 6.4 9.7 0.00 0.00 0.00 83 1004.3
20260505095459 21 58 1.6 4.8 0.00 0.00 0.00 83 1004.2
20260505094955 21 65 3.2 6.4 0.00 0.00 0.00 82 1004.3
20260505094453 21 140 3.2 9.7 0.00 0.00 0.00 82 1004.4
20260505093949 21 40 3.2 6.4 0.00 0.00 0.00 82 1004.2
20260505093446 21 8 8.0 9.7 0.00 0.00 0.00 81 1004.3
20260505092943 22 0 0.0 4.8 0.00 0.00 0.00 81 1004.4
20260505092440 22 10 3.2 8.0 0.00 0.00 0.00 81 1004.4
20260505091938 22 95 4.8 6.4 0.00 0.00 0.00 81 1004.6
20260505091435 22 107 3.2 11.3 0.00 0.00 0.00 80 1004.4
20260505090933 22 33 3.2 6.4 0.00 0.00 0.00 80 1004.4
20260505090431 22 39 3.2 8.0 0.00 0.00 0.00 80 1004.6
20260505085928 22 20 3.2 9.7 0.00 0.00 0.00 79 1004.8
20260505085426 22 29 3.2 9.7 0.00 0.00 0.00 79 1004.9
20260505084924 22 351 6.4 8.0 0.00 0.00 0.00 79 1004.8
20260505084422 22 136 3.2 9.7 0.00 0.00 0.00 78 1004.8
20260505083920 22 351 3.2 8.0 0.00 0.00 0.00 78 1004.7
20260505083417 22 11 3.2 8.0 0.00 0.00 0.00 78 1005.1
20260505082913 22 29 3.2 6.4 0.00 0.00 0.00 77 1004.9
20260505082409 22 12 8.0 8.0 0.00 0.00 0.00 77 1005.0
20260505081906 22 81 3.2 8.0 0.00 0.00 0.00 76 1004.9
20260505081403 22 120 3.2 6.4 0.00 0.00 0.00 76 1004.6
20260505080859 22 37 3.2 8.0 0.00 0.00 0.00 76 1004.8
20260505080355 22 104 4.8 9.7 0.00 0.00 0.00 75 1004.9
20260505075851 22 153 1.6 6.4 0.00 0.00 0.00 75 1004.8
20260505075348 22 152 0.0 4.8 0.00 0.00 0.00 75 1004.8
20260505074845 23 17 0.0 6.4 0.00 0.00 0.00 74 1004.8
20260505074342 23 82 1.6 6.4 0.00 0.00 0.00 74 1004.7
20260505073840 23 35 3.2 6.4 0.00 0.00 0.00 73 1005.0
20260505073337 23 0 1.6 9.7 0.00 0.00 0.00 73 1005.2
20260505072834 23 78 3.2 8.0 0.00 0.00 0.00 72 1005.1
20260505072330 23 112 1.6 4.8 0.00 0.00 0.00 72 1005.3
20260505071826 23 347 4.8 11.3 0.00 0.00 0.00 72 1005.3
20260505071323 23 42 3.2 6.4 0.00 0.00 0.00 72 1005.5
20260505070821 23 92 4.8 8.0 0.00 0.00 0.00 71 1005.8
20260505070318 23 358 4.8 8.0 0.00 0.00 0.00 71 1005.8
20260505065812 23 20 0.0 9.7 0.00 0.00 0.00 70 1005.8
20260505065309 23 6 3.2 4.8 0.00 0.00 0.00 70 1005.8
20260505064807 23 51 3.2 6.4 0.00 0.00 0.00 70 1005.9
20260505064304 23 61 3.2 6.4 0.00 0.00 0.00 69 1006.1
20260505063802 23 75 4.8 8.0 0.00 0.00 0.00 69 1005.9
20260505063258 23 8 6.4 6.4 0.00 0.00 0.00 69 1005.9
20260505062754 23 44 6.4 8.0 0.00 0.00 0.00 69 1005.9
20260505062252 23 333 3.2 6.4 0.00 0.00 0.00 68 1006.2
20260505061748 23 11 0.0 6.4 0.00 0.00 0.00 68 1006.2
20260505061247 23 356 3.2 6.4 0.00 0.00 0.00 68 1006.1
20260505060744 23 148 4.8 4.8 0.00 0.00 0.00 68 1006.1
20260505060241 24 136 6.4 6.4 0.00 0.00 0.00 67 1006.1
20260505055736 24 18 3.2 8.0 0.00 0.00 0.00 67 1006.2
20260505055232 24 179 3.2 6.4 0.00 0.00 0.00 67 1006.3
20260505054730 24 8 4.8 6.4 0.00 0.00 0.00 67 1006.2
20260505054228 24 73 3.2 6.4 0.00 0.00 0.00 67 1006.1
20260505053726 24 61 3.2 8.0 0.00 0.00 0.00 66 1006.0
20260505053222 24 151 1.6 9.7 0.00 0.00 0.00 66 1006.1
20260505052719 24 13 6.4 8.0 0.00 0.00 0.00 66 1006.1
20260505052216 24 173 4.8 8.0 0.00 0.00 0.00 66 1006.2
20260505051713 24 133 4.8 8.0 0.00 0.00 0.00 66 1006.1
20260505051211 24 157 3.2 4.8 0.00 0.00 0.00 67 1006.1
20260505050709 24 112 0.0 4.8 0.00 0.00 0.00 67 1006.1
20260505050207 24 145 3.2 4.8 0.00 0.00 0.00 67 1006.2
20260505041637 24 340 3.2 4.8 0.00 0.00 0.00 67 1006.4
20260505041134 24 21 1.6 6.4 0.00 0.00 0.00 67 1006.7
20260505040631 24 325 3.2 6.4 0.00 0.00 0.00 67 1006.4
20260505040128 24 127 4.8 8.0 0.00 0.00 0.00 67 1006.5
20260505035624 24 354 3.2 6.4 0.00 0.00 0.00 67 1006.8
20260505035121 24 334 3.2 4.8 0.00 0.00 0.00 67 1006.7
20260505034617 24 77 0.0 9.7 0.00 0.00 0.00 67 1006.7
20260505034114 24 10 3.2 8.0 0.00 0.00 0.00 67 1006.6
20260505033611 24 72 4.8 8.0 0.00 0.00 0.00 67 1006.5
20260505033110 24 343 3.2 4.8 0.00 0.00 0.00 67 1006.5
20260505032607 24 180 0.0 4.8 0.00 0.00 0.00 66 1006.6
20260505032103 24 88 3.2 8.0 0.00 0.00 0.00 66 1006.4
20260505031601 24 153 3.2 9.7 0.00 0.00 0.00 66 1006.4
20260505031057 24 136 0.0 8.0 0.00 0.00 0.00 66 1006.7
20260505030554 24 357 3.2 6.4 0.00 0.00 0.00 66 1006.6
20260505030050 24 64 3.2 9.7 0.00 0.00 0.00 66 1006.7
20260505025545 24 15 1.6 4.8 0.00 0.00 0.00 66 1006.7
20260505025045 25 297 0.0 8.0 0.00 0.00 0.00 65 1006.7
20260505024541 25 104 6.4 6.4 0.00 0.00 0.00 65 1006.7
20260505024038 25 41 3.2 4.8 0.00 0.00 0.00 65 1006.7
20260505023535 25 10 4.8 6.4 0.00 0.00 0.00 65 1006.6
20260505023033 25 122 4.8 6.4 0.00 0.00 0.00 65 1006.6
20260505022531 25 345 0.0 6.4 0.00 0.00 0.00 65 1006.5
20260505022027 25 187 3.2 8.0 0.00 0.00 0.00 65 1006.8
20260505021524 25 212 1.6 6.4 0.00 0.00 0.00 65 1006.6
20260505021021 25 328 3.2 6.4 0.00 0.00 0.00 65 1006.6
20260505020520 25 103 3.2 8.0 0.00 0.00 0.00 65 1006.5
20260505020018 25 21 1.6 6.4 0.00 0.00 0.00 65 1006.6
20260505015515 25 149 4.8 8.0 0.00 0.00 0.00 65 1006.7